This demonstration page uses our WeatherBlox Daily Observations layout. Learn more.

Left ArrowRight Arrow

34.16533, -84.80231

Hourly Observations for August 24, 2020

Temp ( °F °C ) Dew Point ( °F °C ) Humidity (%) Winds ( mph kmh ) Pressure ( in mb ) Visibility ( mi km ) Precip ( " mm )
12:53 am 00:53 Clear 72 22.2 69 20.6 91 91 Calm 30.09 1019 10 16 0.00 0.00
1:53 am 01:53 Clear 71 21.7 69 20.6 94 94 Calm 30.07 1018 7 11 0.00 0.00
2:53 am 02:53 Partly Cloudy 72 22.2 69 20.6 91 91 Calm 30.06 1018 7 11 0.00 0.00
3:53 am 03:53 Mostly Clear 71 21.7 69 20.6 94 94 Calm 30.06 1018 7 11 0.00 0.00
4:53 am 04:53 Cloudy 74 23.3 71 21.7 91 91 Calm 30.08 1019 10 16 0.00 0.00
5:53 am 05:53 Mostly Cloudy 74 23.3 71 21.7 91 91 Calm 30.10 1019 9 14 0.00 0.00
6:53 am 06:53 Cloudy with Light Rain 75 23.9 71 21.7 88 88 Calm 30.11 1020 7 11 0.01 0.25
7:53 am 07:53 Cloudy with Light Rain 75 23.9 72 22.2 90 90 Calm 30.13 1020 5 8 0.01 0.25
8:03 am 08:03 Cloudy with Rain 74 23.3 72 22.2 94 94 Calm 30.13 1020 2 3 0.04 1.02
8:09 am 08:09 Cloudy with Light Rain 74 23.3 72 22.2 94 94 NNE 3 6 30.13 1020 3 5 0.04 1.02
8:53 am 08:53 Mostly Cloudy 75 23.9 72 22.2 90 90 NE 5 7 30.12 1020 7 11 0.05 1.27
9:00 am 09:00 Mostly Cloudy 75 23.9 72 22.2 90 90 NNE 5 7 30.12 1020 7 11 0.00 0.00
9:10 am 09:10 Cloudy with Light Rain 75 23.9 72 22.2 90 90 NE 7 11 30.12 1020 6 10 0.00 0.00
9:33 am 09:33 Mostly Cloudy 76 24.4 73 22.8 91 91 NE 5 7 30.14 1021 8 13 0.00 0.00
9:53 am 09:53 Mostly Cloudy 76 24.4 73 22.8 91 91 ENE 5 7 30.14 1021 9 14 0.00 0.00
9:58 am 09:58 Mostly Cloudy 76 24.4 73 22.8 91 91 ENE 5 7 30.15 1021 10 16 0.00 0.00
10:10 am 10:10 Cloudy 77 25 73 22.8 88 88 NE 5 7 30.15 1021 10 16 0.00 0.00
10:24 am 10:24 Cloudy 77 25 72 22.2 85 85 ENE 5 7 30.15 1021 10 16 0.00 0.00
10:31 am 10:31 Cloudy 77 25 72 22.2 85 85 NE 5 7 30.15 1021 10 16 0.00 0.00
10:53 am 10:53 Cloudy 78 25.6 72 22.2 82 82 E 5 7 30.15 1021 10 16 0.00 0.00
11:53 am 11:53 Mostly Cloudy 80 26.7 71 21.7 74 74 VRB 3 6 30.15 1021 10 16 0.00 0.00
12:03 pm 12:03 Mostly Cloudy 80 26.7 71 21.7 74 74 NE 5 7 30.15 1021 10 16 0.00 0.00
12:10 pm 12:10 Mostly Cloudy 80 26.7 71 21.7 74 74 NE 5 7 30.15 1021 10 16 0.00 0.00
12:53 pm 12:53 Partly Cloudy 82 27.8 71 21.7 69 69 NNE 6 9 30.13 1020 10 16 0.00 0.00
1:50 pm 13:50 Mostly Cloudy 84 29 72 22 66 66 NE 5 7 30.11 1020 10 16 0.00 0.00
1:53 pm 13:53 Mostly Cloudy 84 28.9 71 21.7 65 65 VRB 5 7 30.11 1020 10 16 0.00 0.00
2:06 pm 14:06 Partly Cloudy 84 28.9 72 22.2 67 67 Calm 30.10 1019 10 16 0.00 0.00
2:53 pm 14:53 Sunny 86 30 71 21.7 61 61 NE 5 7 30.08 1019 10 16 0.00 0.00
3:53 pm 15:53 Sunny 86 30 71 21.7 61 61 VRB 3 6 30.06 1018 10 16 0.00 0.00
4:53 pm 16:53 Sunny 86 30 71 21.7 61 61 Calm 30.06 1018 10 16 0.00 0.00
5:53 pm 17:53 Sunny 84 28.9 72 22.2 67 67 VRB 3 6 30.06 1018 10 16 0.00 0.00
6:53 pm 18:53 Mostly Sunny 84 28.9 73 22.8 70 70 VRB 5 7 30.05 1018 10 16 0.00 0.00
7:53 pm 19:53 Mostly Sunny 82 27.8 73 22.8 74 74 Calm 30.05 1018 10 16 0.00 0.00
8:53 pm 20:53 Mostly Clear 79 26.1 74 23.3 85 85 Calm 30.05 1018 10 16 0.01 0.25
9:53 pm 21:53 Mostly Cloudy with Light Rain 78 25.6 74 23.3 87 87 SSE 8 13 30.06 1018 10 16 0.00 0.00
10:24 pm 22:24 Partly Cloudy with Light Rain 77 25 71 21.7 82 82 SE 7 11 30.09 1019 10 16 0.00 0.00
10:53 pm 22:53 Mostly Cloudy with Light Rain 76 24.4 71 21.7 85 85 ESE 5 7 30.08 1019 10 16 0.00 0.00
11:53 pm 23:53 Cloudy 76 24.4 71 21.7 85 85 Calm 30.08 1019 10 16 0.00 0.00

Powered by AerisWeather